Location: Unspecified
(50.7700°N, 0.0000°E)
Time: 03:43:29
(UTC+00:00)

IRAS - Visible Passes

Search period start: 04 April 2026 00:00
Search period end: 14 April 2026 00:00
Orbit: 876 x 905 km, 99.1° (Epoch: 29 March)

Date Brightness Start Highest point End Pass type
(mag) Time Alt. Az. Time Alt. Az. Time Alt. Az.
4 Apr 8.1 02:27:00 10° ENE 02:28:38 11° NE 02:30:15 10° NNE visible
4 Apr 6.0 04:03:22 10° SE 04:08:49 47° ENE 04:14:16 10° N visible
4 Apr 7.5 19:49:37 10° N 19:53:51 22° NW 19:58:04 10° WSW visible
5 Apr 8.1 02:26:54 10° ENE 02:28:30 11° NE 02:30:06 10° NNE visible
5 Apr 6.0 04:03:14 10° SE 04:08:42 47° ENE 04:14:09 10° N visible
5 Apr 7.5 19:49:29 10° N 19:53:44 22° NW 19:57:57 10° WSW visible
6 Apr 8.1 02:26:48 10° ENE 02:28:23 11° NE 02:29:58 10° NNE visible
6 Apr 6.0 04:03:07 10° SE 04:08:34 47° ENE 04:14:01 10° N visible
6 Apr 7.5 19:49:21 10° N 19:53:36 22° NW 19:57:49 10° WSW visible
7 Apr 8.1 02:26:42 10° ENE 02:28:15 11° NE 02:29:48 10° NNE visible
7 Apr 6.0 04:03:00 10° SE 04:08:27 46° ENE 04:13:53 10° N visible
7 Apr 7.5 19:49:14 10° N 19:53:28 22° NW 19:57:42 10° WSW visible
8 Apr 8.2 02:26:36 10° ENE 02:28:07 11° NE 02:29:39 10° NNE visible
8 Apr 6.0 04:02:52 10° SE 04:08:19 46° ENE 04:13:45 10° N visible
8 Apr 7.5 19:49:06 10° N 19:53:21 22° NW 19:57:34 10° WSW visible
9 Apr 8.2 02:26:30 10° ENE 02:28:00 11° NE 02:29:30 10° NNE visible
9 Apr 6.1 04:02:45 10° SE 04:08:12 46° ENE 04:13:36 10° N visible
9 Apr 7.5 19:48:58 10° N 19:53:13 22° NW 19:57:26 10° WSW visible
10 Apr 8.2 02:26:24 10° ENE 02:27:52 11° NE 02:29:21 10° NNE visible
10 Apr 6.1 04:02:37 10° SE 04:08:04 46° ENE 04:13:29 10° N visible
10 Apr 7.6 19:48:50 10° N 19:53:05 22° NW 19:57:19 10° WSW visible
11 Apr 8.2 02:26:18 10° ENE 02:27:45 11° NE 02:29:12 10° NNE visible
11 Apr 6.1 04:02:30 10° SE 04:07:55 46° ENE 04:13:21 10° N visible
11 Apr 7.6 19:48:42 10° N 19:52:57 22° NW 19:57:11 10° WSW visible
12 Apr 8.2 02:26:12 10° ENE 02:27:37 11° NE 02:29:02 10° NNE visible
12 Apr 6.1 04:02:23 10° SE 04:07:48 46° ENE 04:13:13 10° N visible
12 Apr 7.6 19:48:34 10° N 19:52:50 22° NW 19:57:04 10° WSW visible
13 Apr 8.2 02:26:06 10° ENE 02:27:29 11° NE 02:28:53 10° NNE visible
13 Apr 6.1 04:02:16 10° SE 04:07:41 46° ENE 04:13:05 10° N visible
13 Apr 7.6 19:48:26 10° N 19:52:42 23° NW 19:56:56 10° WSW visible
